• In Austria
  • List of Countries
  • For 7 days
  • Water Temperature
  • Satellite Maps
  • Weather Map
  • News
  • Weather Widgets
  • user-avatar
    Login

    Hourly Weather Susurluk

    Today, 19 November, Sunday

    Time Temperature Precipitation Wind Pressure Humidity
    00:00 +14°C° 0 mm 1 mps 753 mmHg 72%
    01:00 +14°C° 0 mm 1 mps 753 mmHg 71%
    02:00 +14°C° 0 mm 1 mps 752 mmHg 73%
    03:00 +14°C° 0.1 mm 1 mps 752 mmHg 72%
    04:00 +13°C° 0.1 mm 1 mps 752 mmHg 71%
    05:00 +13°C° 0.1 mm 1 mps 752 mmHg 70%
    06:00 +13°C° 0.1 mm 1 mps 752 mmHg 69%
    07:00 +14°C° 0.1 mm 1 mps 752 mmHg 68%
    08:00 +14°C° 0.1 mm 2 mps 752 mmHg 67%
    09:00 +16°C° 0 mm 2 mps 752 mmHg 62%
    10:00 +18°C° 0 mm 2 mps 752 mmHg 56%
    11:00 +20°C° 0 mm 3 mps 752 mmHg 50%
    12:00 +20°C° 0.2 mm 3 mps 752 mmHg 50%
    13:00 +20°C° 0.2 mm 3 mps 751 mmHg 50%
    14:00 +21°C° 0.2 mm 4 mps 751 mmHg 49%
    15:00 +19°C° 0.6 mm 3 mps 751 mmHg 56%
    16:00 +18°C° 0.6 mm 3 mps 751 mmHg 63%
    17:00 +16°C° 0.6 mm 2 mps 751 mmHg 70%
    18:00 +16°C° 0.5 mm 2 mps 751 mmHg 74%
    19:00 +15°C° 0.5 mm 2 mps 751 mmHg 77%
    20:00 +15°C° 0.5 mm 2 mps 751 mmHg 80%
    21:00 +14°C° 0.1 mm 3 mps 750 mmHg 81%
    22:00 +13°C° 0.1 mm 3 mps 750 mmHg 81%
    23:00 +13°C° 0.1 mm 4 mps 750 mmHg 81%

    Tomorrow, 20 November, Monday

    Time Temperature Precipitation Wind Pressure Humidity
    00:00 +13°C° 0.2 mm 4 mps 751 mmHg 83%
    01:00 +13°C° 0.2 mm 4 mps 751 mmHg 84%
    02:00 +13°C° 0.2 mm 4 mps 751 mmHg 85%
    03:00 +13°C° 0.2 mm 3 mps 751 mmHg 87%
    04:00 +12°C° 0.2 mm 3 mps 751 mmHg 89%
    05:00 +13°C° 0.2 mm 2 mps 751 mmHg 90%
    06:00 +13°C° 0.3 mm 2 mps 751 mmHg 90%
    07:00 +13°C° 0.3 mm 1 mps 751 mmHg 90%
    08:00 +13°C° 0.3 mm 1 mps 751 mmHg 90%
    09:00 +14°C° 1.1 mm 2 mps 751 mmHg 84%
    10:00 +13°C° 1.1 mm 3 mps 750 mmHg 78%
    11:00 +14°C° 1.1 mm 3 mps 750 mmHg 73%
    12:00 +13°C° 1.9 mm 4 mps 750 mmHg 77%
    13:00 +12°C° 1.9 mm 4 mps 749 mmHg 81%
    14:00 +10°C° 1.9 mm 5 mps 749 mmHg 85%
    15:00 +9°C° 1.3 mm 5 mps 750 mmHg 87%
    16:00 +8°C° 1.3 mm 4 mps 750 mmHg 89%
    17:00 +8°C° 1.3 mm 4 mps 751 mmHg 91%
    18:00 +7°C° 2.5 mm 5 mps 752 mmHg 91%
    19:00 +7°C° 2.5 mm 6 mps 753 mmHg 90%
    20:00 +5°C° 2.5 mm 7 mps 753 mmHg 90%
    21:00 +5°C° 1.8 mm 7 mps 754 mmHg 89%
    22:00 +5°C° 1.8 mm 7 mps 755 mmHg 87%
    23:00 +5°C° 1.8 mm 7 mps 755 mmHg 86%

    Day after tomorrow, 21 November, Tuesday

    Time Temperature Precipitation Wind Pressure Humidity
    00:00 +5°C° 0.8 mm 7 mps 756 mmHg 85%
    01:00 +5°C° 0.8 mm 7 mps 756 mmHg 83%
    02:00 +5°C° 0.8 mm 6 mps 757 mmHg 82%
    03:00 +5°C° 0.2 mm 6 mps 757 mmHg 82%
    04:00 +5°C° 0.2 mm 5 mps 757 mmHg 82%
    05:00 +5°C° 0.2 mm 5 mps 758 mmHg 82%
    06:00 +5°C° 0.1 mm 4 mps 758 mmHg 82%
    07:00 +5°C° 0.1 mm 3 mps 759 mmHg 82%
    08:00 +5°C° 0.1 mm 3 mps 759 mmHg 82%
    09:00 +5°C° 0 mm 3 mps 759 mmHg 76%
    10:00 +7°C° 0 mm 2 mps 760 mmHg 71%
    11:00 +8°C° 0 mm 2 mps 760 mmHg 66%
    12:00 +9°C° 0 mm 2 mps 759 mmHg 62%
    13:00 +9°C° 0 mm 2 mps 759 mmHg 58%
    14:00 +9°C° 0 mm 2 mps 759 mmHg 54%
    15:00 +8°C° 0 mm 2 mps 759 mmHg 56%
    16:00 +9°C° 0 mm 1 mps 759 mmHg 58%
    17:00 +8°C° 0 mm 1 mps 759 mmHg 61%
    18:00 +7°C° 0 mm 1 mps 759 mmHg 62%
    19:00 +7°C° 0 mm 1 mps 760 mmHg 64%
    20:00 +5°C° 0 mm 2 mps 760 mmHg 65%
    21:00 +5°C° 0 mm 2 mps 760 mmHg 65%
    22:00 +5°C° 0 mm 2 mps 760 mmHg 65%
    23:00 +5°C° 0 mm 2 mps 760 mmHg 65%

    22 November, Wednesday

    Time Temperature Precipitation Wind Pressure Humidity
    00:00 +5°C° 0 mm 2 mps 760 mmHg 64%
    01:00 +5°C° 0 mm 2 mps 760 mmHg 63%
    02:00 +5°C° 0 mm 2 mps 760 mmHg 61%
    03:00 +5°C° 0 mm 2 mps 760 mmHg 60%
    04:00 +5°C° 0 mm 2 mps 760 mmHg 59%
    05:00 +5°C° 0 mm 2 mps 760 mmHg 58%
    06:00 +5°C° 0 mm 2 mps 760 mmHg 58%
    07:00 +5°C° 0 mm 2 mps 760 mmHg 57%
    08:00 +6°C° 0 mm 2 mps 760 mmHg 57%
    09:00 +8°C° 0 mm 2 mps 760 mmHg 53%
    10:00 +10°C° 0 mm 2 mps 760 mmHg 48%
    11:00 +13°C° 0 mm 2 mps 760 mmHg 44%
    12:00 +14°C° 0 mm 2 mps 760 mmHg 44%
    13:00 +15°C° 0 mm 2 mps 760 mmHg 44%
    14:00 +15°C° 0 mm 2 mps 760 mmHg 44%
    15:00 +14°C° 0 mm 1 mps 760 mmHg 48%
    16:00 +13°C° 0 mm 1 mps 760 mmHg 52%
    17:00 +12°C° 0 mm 1 mps 760 mmHg 56%
    18:00 +11°C° 0 mm 1 mps 760 mmHg 58%
    19:00 +11°C° 0 mm 1 mps 761 mmHg 59%
    20:00 +10°C° 0 mm 1 mps 761 mmHg 60%
    21:00 +10°C° 0 mm 1 mps 761 mmHg 61%
    22:00 +10°C° 0 mm 1 mps 761 mmHg 62%
    23:00 +9°C° 0 mm 1 mps 761 mmHg 63%

    23 November, Thursday

    Time Temperature Precipitation Wind Pressure Humidity
    00:00 +9°C° 0 mm 1 mps 762 mmHg 63%
    01:00 +9°C° 0 mm 1 mps 762 mmHg 64%
    02:00 +9°C° 0 mm 1 mps 762 mmHg 65%
    03:00 +9°C° 0 mm 1 mps 762 mmHg 66%
    04:00 +9°C° 0 mm 1 mps 762 mmHg 66%
    05:00 +9°C° 0 mm 1 mps 762 mmHg 67%
    06:00 +9°C° 0 mm 1 mps 762 mmHg 67%
    07:00 +9°C° 0 mm 1 mps 762 mmHg 66%
    08:00 +9°C° 0 mm 1 mps 763 mmHg 66%
    09:00 +11°C° 0 mm 1 mps 763 mmHg 61%
    10:00 +13°C° 0 mm 1 mps 763 mmHg 55%
    11:00 +15°C° 0 mm 1 mps 763 mmHg 50%
    12:00 +16°C° 0 mm 1 mps 762 mmHg 49%
    13:00 +18°C° 0 mm 1 mps 762 mmHg 48%
    14:00 +17°C° 0 mm 2 mps 762 mmHg 47%
    15:00 +16°C° 0 mm 2 mps 762 mmHg 53%
    16:00 +14°C° 0 mm 1 mps 762 mmHg 58%
    17:00 +13°C° 0 mm 1 mps 762 mmHg 64%
    18:00 +12°C° 0 mm 1 mps 762 mmHg 66%
    19:00 +12°C° 0 mm 1 mps 763 mmHg 69%
    20:00 +11°C° 0 mm 1 mps 763 mmHg 71%
    21:00 +11°C° 0 mm 1 mps 763 mmHg 72%
    22:00 +10°C° 0 mm 1 mps 763 mmHg 73%
    23:00 +10°C° 0 mm 1 mps 764 mmHg 74%

    24 November, Friday

    Time Temperature Precipitation Wind Pressure Humidity
    00:00 +10°C° 0 mm 1 mps 764 mmHg 75%
    01:00 +10°C° 0 mm 1 mps 764 mmHg 75%
    02:00 +9°C° 0 mm 1 mps 763 mmHg 75%
    03:00 +9°C° 0 mm 1 mps 763 mmHg 76%
    04:00 +9°C° 0 mm 1 mps 763 mmHg 76%
    05:00 +9°C° 0 mm 1 mps 763 mmHg 77%
    06:00 +9°C° 0 mm 1 mps 764 mmHg 75%
    07:00 +9°C° 0 mm 1 mps 764 mmHg 74%
    08:00 +10°C° 0 mm 1 mps 764 mmHg 73%
    09:00 +12°C° 0 mm 1 mps 764 mmHg 65%
    10:00 +14°C° 0 mm 1 mps 764 mmHg 58%
    11:00 +16°C° 0 mm 1 mps 764 mmHg 51%
    12:00 +17°C° 0 mm 2 mps 763 mmHg 49%
    13:00 +17°C° 0 mm 2 mps 763 mmHg 46%
    14:00 +18°C° 0 mm 2 mps 762 mmHg 44%
    15:00 +16°C° 0 mm 2 mps 763 mmHg 51%
    16:00 +15°C° 0 mm 2 mps 763 mmHg 58%
    17:00 +13°C° 0 mm 2 mps 763 mmHg 65%
    18:00 +13°C° 0 mm 2 mps 763 mmHg 68%
    19:00 +12°C° 0 mm 1 mps 763 mmHg 70%
    20:00 +11°C° 0 mm 1 mps 764 mmHg 73%
    21:00 +11°C° 0 mm 1 mps 764 mmHg 73%
    22:00 +11°C° 0 mm 1 mps 764 mmHg 73%
    23:00 +11°C° 0 mm 1 mps 764 mmHg 73%
    Show more